Theta_e
334 334 332 331 331 331 331 331 330 330 331 332 333 332 330 329 330 332 331 342 348 350 354 356 354 352 352 353 351 351 349 347 348 348 347 347 347 346 346 346 347 346 344
333 329 332 332 331 331 331 331 330 329 328 330 331 333 332 332 332 331 332 333 346 349 351 354 355 354 352 352 351 351 349 347 347 347 346 346 346 346 345 345 346 345 345
333 330 330 332 334 331 332 332 332 331 328 331 332 333 334 334 333 333 333 333 336 348 349 350 353 354 354 352 351 353 351 348 346 346 345 344 345 345 345 345 346 345 345
335 331 332 333 335 333 334 334 333 332 331 330 331 331 331 332 333 334 335 334 334 337 347 350 350 352 352 352 351 352 352 346 345 344 344 344 344 344 345 345 345 345 344
339 333 332 336 337 335 335 335 331 331 327 326 328 329 329 331 332 335 334 334 335 336 336 344 348 349 350 352 352 351 351 349 345 344 344 344 344 344 344 345 345 345 344
342 341 338 334 339 335 334 332 331 330 330 329 331 333 334 335 335 335 336 338 338 336 335 336 338 342 347 350 350 351 349 348 346 344 343 343 343 343 344 344 344 344 344
343 340 342 342 338 338 337 334 331 330 330 333 330 328 330 333 332 334 337 337 337 339 337 337 336 336 338 345 347 349 350 350 346 345 343 341 342 343 344 344 343 343 343
345 345 341 340 340 339 336 334 331 330 330 332 327 328 323 325 326 331 335 336 337 338 339 339 338 337 337 337 339 345 348 348 347 347 343 341 342 342 343 343 343 342 342
340 340 343 341 340 339 337 334 332 330 328 331 332 327 322 320 320 325 330 335 335 336 337 339 338 339 338 337 339 341 344 345 347 348 344 343 342 343 343 342 342 341 342
338 339 338 340 341 342 338 335 335 333 331 327 331 335 333 324 318 316 326 333 333 331 333 336 338 338 339 337 341 340 339 341 346 346 346 345 343 343 343 343 342 341 342
338 339 336 335 337 340 338 334 333 333 333 331 330 328 329 328 326 322 322 321 327 332 335 338 337 337 337 338 337 338 337 337 338 340 341 343 343 343 344 344 343 342 342
332 336 339 339 340 339 337 335 334 333 333 333 333 329 329 326 323 324 320 320 325 330 331 334 335 335 336 335 339 337 334 333 331 331 334 336 339 341 343 344 344 342 342
318 323 331 337 337 336 334 332 333 334 334 333 333 334 335 332 328 329 326 322 323 326 329 332 334 335 335 335 335 336 336 330 328 327 328 329 332 336 339 341 342 342 341
317 320 322 325 334 338 337 336 336 334 333 336 335 337 337 336 330 330 327 325 322 321 323 327 330 334 334 334 335 333 334 329 326 324 324 325 327 329 332 334 336 336 336
322 325 326 325 326 329 335 336 336 336 335 334 334 336 338 338 337 334 332 330 326 322 322 326 326 331 332 333 335 333 333 329 327 323 323 323 323 324 326 327 328 329 330
322 323 325 327 327 329 329 332 330 334 335 336 336 335 337 337 337 334 335 333 332 328 325 328 327 329 330 332 333 332 331 328 325 323 322 321 320 320 321 322 323 325 327
321 322 321 322 324 326 327 328 327 328 333 333 335 335 335 337 335 334 335 335 334 333 329 333 327 328 327 327 329 328 330 328 326 321 322 320 318 318 318 319 320 321 323
317 317 319 319 320 322 323 324 325 327 328 329 332 335 335 337 335 336 336 337 337 336 332 329 326 325 324 323 325 324 326 329 326 324 320 318 315 314 313 314 315 316 316
312 313 313 313 314 317 318 320 323 325 327 327 329 331 334 337 335 337 337 337 337 336 332 327 325 323 323 322 321 321 322 322 325 326 318 318 317 315 313 312 311 311 310
307 307 308 310 313 314 314 315 316 315 319 322 326 328 331 333 337 339 337 338 337 333 330 326 322 321 321 320 321 319 319 319 320 324 322 320 319 318 315 313 313 313 310
307 306 307 308 309 311 313 311 311 310 311 316 321 324 325 326 325 327 339 340 340 333 328 324 320 318 318 320 321 319 319 317 317 319 318 321 321 320 319 315 316 315 312
305 306 306 307 307 311 307 305 308 307 309 312 314 318 322 322 323 318 318 322 335 334 326 324 321 318 317 319 319 319 316 314 313 317 317 316 322 320 321 320 315 312 310
304 304 305 305 306 306 303 302 304 306 308 308 311 315 319 325 322 329 325 315 316 315 321 327 323 319 317 320 320 316 315 314 314 314 316 313 320 321 323 322 311 309 308
302 304 304 305 305 306 302 300 301 304 305 307 310 314 319 320 321 322 331 333 331 328 323 326 327 323 326 325 325 322 320 315 314 316 316 312 317 320 321 322 308 307 306
304 304 304 305 304 304 301 299 300 303 304 306 311 315 318 319 313 306 324 332 330 324 310 308 310 310 307 305 314 320 315 314 313 317 319 314 317 319 320 319 319 307 304
305 305 305 305 305 304 299 298 299 304 304 307 309 314 310 314 308 305 320 332 326 322 318 318 317 310 310 310 306 320 317 313 312 315 321 317 316 317 315 319 317 315 313
Wind_Speed
6 5 5 4 4 3 4 4 4 4 4 5 5 6 6 6 6 4 4 13 9 9 12 12 11 11 13 12 12 12 12 12 11 11 11 11 10 10 11 12 13 13 12
4 4 4 6 5 5 4 4 4 4 4 5 6 7 8 6 6 6 5 5 11 11 12 12 12 12 12 11 13 12 13 13 13 12 12 12 12 12 13 13 13 13 12
8 7 5 5 7 5 5 4 3 3 3 4 7 5 5 6 6 7 6 5 5 12 12 13 12 13 13 13 13 13 14 13 14 14 13 12 13 14 13 13 13 13 13
13 9 7 8 5 4 4 4 4 4 4 4 4 5 4 5 7 8 6 4 4 4 10 16 13 14 14 14 14 14 14 14 14 13 13 13 12 14 14 14 14 14 13
11 9 8 7 5 5 5 4 3 4 3 4 5 5 5 5 6 5 7 6 6 5 5 11 14 13 13 14 14 15 15 15 13 14 15 15 13 14 15 15 15 15 14
6 7 5 5 5 4 4 3 4 4 4 4 4 4 5 5 5 5 5 5 6 7 6 7 5 6 13 12 12 16 16 16 14 14 14 14 14 14 15 15 15 15 15
5 3 7 4 5 6 6 5 4 5 4 3 1 3 4 6 6 5 4 4 5 6 6 6 4 3 4 9 11 12 16 17 15 15 14 14 14 14 15 15 16 16 16
8 3 5 5 2 4 5 4 4 2 2 4 3 2 4 6 3 3 4 5 6 4 8 6 6 6 4 4 7 12 16 16 15 16 14 14 14 15 15 15 16 16 16
7 9 3 4 3 5 5 5 5 6 4 3 4 5 0 5 4 2 4 5 5 5 4 6 6 5 6 5 7 9 13 14 15 16 15 13 14 16 16 15 15 17 17
4 6 11 4 7 8 6 5 5 5 4 4 1 5 2 1 1 5 2 5 2 6 6 3 6 5 6 4 10 11 12 11 13 14 15 15 17 17 16 15 15 16 17
7 9 15 14 11 10 14 7 7 7 4 2 4 1 2 2 3 4 8 4 4 5 4 5 6 5 6 5 5 7 14 12 12 11 10 14 16 16 14 16 15 15 17
4 7 7 7 10 13 14 10 8 6 7 5 4 3 6 4 2 4 4 4 6 4 3 5 6 4 5 5 7 11 13 12 11 9 9 9 11 11 12 14 15 17 18
2 7 6 7 7 8 10 12 9 10 7 6 6 7 6 8 3 4 3 2 4 3 4 4 5 4 5 5 6 11 12 10 10 10 8 8 7 8 9 11 14 15 16
2 2 3 2 4 4 5 5 7 7 6 8 11 8 7 6 3 7 6 4 5 3 3 6 3 5 4 5 8 11 6 10 10 9 8 7 7 7 9 9 10 11 13
3 3 2 1 1 3 5 5 4 5 5 7 10 10 9 8 6 7 7 5 6 8 12 5 4 4 3 4 6 5 6 6 10 9 8 7 8 8 8 9 9 10 10
3 2 1 1 2 2 3 4 1 2 4 7 7 10 10 9 9 7 7 5 5 9 13 4 6 4 1 2 5 5 5 6 9 8 8 8 9 8 7 8 9 10 10
4 3 3 3 1 1 2 4 4 4 6 7 7 10 12 12 8 9 4 5 9 9 11 9 4 2 2 3 3 4 5 5 4 7 7 7 8 8 7 8 9 10 11
6 7 5 3 1 1 2 3 5 4 7 6 8 8 11 8 11 6 6 12 10 9 9 11 3 2 4 1 4 4 3 2 3 5 5 7 7 6 6 7 8 10 9
7 7 6 6 4 4 4 4 4 5 7 6 7 10 11 9 10 8 8 8 8 5 7 5 5 1 3 2 2 2 2 2 2 3 2 5 8 6 7 9 10 10 10
7 7 7 6 6 6 5 5 5 5 6 6 8 9 9 10 11 10 8 10 4 5 5 7 3 4 4 2 3 3 2 1 3 3 4 5 7 5 7 8 10 11 10
9 8 7 7 7 6 5 6 6 5 5 7 7 7 8 10 12 13 10 10 8 7 6 7 4 3 3 2 6 3 3 2 3 3 2 2 3 2 2 6 9 10 9
9 7 8 8 7 6 10 11 7 5 5 7 8 10 10 11 11 13 15 20 13 11 11 8 4 4 4 4 4 4 4 3 3 3 4 3 4 3 2 3 6 8 8
9 9 9 8 9 8 12 11 9 5 6 7 8 10 11 9 10 11 13 14 14 15 12 12 10 6 6 8 7 5 5 4 4 2 3 2 4 3 3 4 9 9 8
8 9 10 10 9 8 12 13 11 6 6 8 10 12 12 12 12 11 13 10 11 11 12 8 9 7 7 8 10 8 7 4 2 1 3 4 3 3 2 2 3 7 7
10 10 8 10 10 9 14 13 8 5 6 8 10 11 11 11 14 15 12 13 10 6 3 2 2 8 8 11 9 6 4 4 3 3 4 3 3 2 2 2 3 3 4
11 9 12 11 13 12 13 14 9 5 6 7 9 10 14 13 15 18 12 11 10 9 8 6 4 6 6 4 8 4 6 4 3 2 4 4 2 3 1 1 1 2 1
Wind_Direction
206 192 199 205 214 213 208 170 185 202 226 251 250 245 255 243 240 241 244 261 251 224 223 221 224 229 229 227 227 226 233 233 222 218 214 213 217 226 229 226 224 227 225
221 208 204 207 220 206 215 174 182 195 215 223 244 229 243 251 238 233 236 246 239 213 225 233 229 234 233 231 236 230 237 237 231 223 221 212 217 225 230 232 231 227 221
196 208 211 214 218 203 208 158 175 203 192 221 251 245 235 246 252 247 235 222 220 218 218 223 224 237 236 234 236 235 234 239 238 225 227 217 216 225 226 231 231 225 226
199 192 212 222 214 195 189 168 169 208 224 216 240 249 241 240 247 250 254 244 239 211 210 224 217 227 235 233 236 240 240 242 239 234 229 228 216 224 226 225 229 227 222
202 211 204 226 202 201 202 171 172 174 206 228 233 246 237 238 241 252 249 243 237 226 206 217 208 219 234 238 234 239 244 244 234 230 226 230 222 224 225 224 226 228 227
232 206 220 211 190 241 201 170 159 189 197 221 243 252 248 242 247 246 254 261 234 218 217 215 197 200 227 234 239 235 238 247 251 238 230 226 224 225 224 225 226 225 228
223 215 250 201 171 227 228 190 166 190 220 205 3 316 282 251 245 229 231 258 274 237 200 215 205 212 217 227 231 241 242 241 249 249 238 227 221 227 226 223 226 225 227
160 176 222 262 204 236 225 202 176 166 219 183 160 99 317 319 310 213 216 227 230 232 227 191 199 208 212 206 219 226 245 246 241 250 251 228 224 225 229 223 225 226 225
192 162 182 292 240 236 237 229 194 183 212 233 218 151 222 238 334 26 256 246 215 237 214 174 208 196 202 202 219 225 237 244 241 247 247 235 226 226 228 227 222 224 225
222 222 219 218 313 294 287 232 233 200 163 217 235 236 245 159 199 318 298 275 322 288 291 258 179 195 204 203 219 214 214 227 248 249 236 233 234 232 225 228 223 223 224
204 225 221 204 200 217 242 216 226 214 183 161 206 209 230 225 170 212 277 306 318 269 276 278 254 163 208 198 207 210 211 215 237 237 249 240 238 241 230 226 225 220 222
209 230 194 228 218 199 197 198 198 219 197 207 229 212 226 228 200 201 237 247 253 278 273 268 264 191 195 204 210 212 210 207 219 231 235 247 249 248 236 226 229 227 229
179 166 178 190 203 216 242 257 245 239 213 191 203 235 235 241 184 173 206 267 293 293 293 262 261 230 200 200 194 220 212 206 214 220 229 236 241 251 248 234 232 229 233
276 284 292 272 279 272 266 222 220 218 209 213 219 217 232 230 205 231 230 190 284 290 297 253 254 249 190 195 206 212 207 194 203 205 214 231 239 240 252 249 238 233 232
252 275 277 223 254 263 241 208 215 234 225 243 245 232 223 236 237 233 222 191 208 282 282 269 274 254 217 170 209 191 200 180 192 188 203 226 241 236 239 247 232 233 236
192 200 178 74 16 8 329 299 297 277 257 250 242 241 233 232 230 210 220 187 202 237 271 194 252 261 125 202 189 181 178 173 186 183 202 225 235 229 235 244 238 236 234
182 160 130 106 81 339 303 285 293 301 269 269 257 244 236 233 227 220 205 218 232 225 239 274 263 304 269 169 162 178 162 175 182 194 209 229 240 235 237 245 244 240 239
171 160 152 140 157 267 268 277 286 282 271 268 281 268 256 251 239 225 225 234 229 209 223 246 226 244 265 225 149 148 140 165 174 194 219 237 239 237 241 246 244 241 240
184 185 175 182 200 227 237 238 250 260 271 268 273 274 275 258 266 256 232 232 222 217 208 237 243 149 265 208 132 102 165 167 188 163 206 243 250 246 257 257 256 247 247
188 200 197 193 202 214 223 222 233 251 261 273 266 263 273 274 268 267 268 269 208 220 207 223 213 168 221 199 102 141 199 190 200 203 212 221 237 247 248 253 256 251 246
204 199 189 206 204 205 216 217 228 240 262 269 264 271 279 282 290 279 264 254 226 224 222 203 208 160 188 164 190 170 185 161 242 199 204 221 231 220 235 243 254 246 241
208 190 200 201 199 213 221 227 224 250 275 279 287 284 280 278 277 269 253 244 230 214 218 213 193 178 192 158 148 173 152 144 242 204 166 245 190 218 217 203 228 235 224
204 204 212 198 205 207 214 224 229 250 263 266 276 283 283 279 283 292 272 238 226 210 207 196 200 175 165 181 144 163 180 171 194 214 124 216 197 217 188 212 216 214 223
217 220 223 217 215 210 205 217 221 227 248 254 261 266 264 274 276 269 279 258 240 224 221 208 206 178 186 173 183 181 182 147 76 132 155 205 195 200 159 199 211 214 227
220 221 221 220 208 216 204 219 220 229 244 252 254 260 258 268 271 268 264 252 241 199 89 273 169 169 166 172 153 124 137 123 206 219 195 174 191 157 175 214 203 207 238
233 227 231 225 220 215 196 210 211 218 255 268 268 258 256 250 261 263 248 235 214 206 163 142 127 85 107 133 151 132 144 158 144 200 199 184 139 139 281 217 186 205 214